Weather History for Broomfield, CO

Change the Weather History Date:

Saturday, November 30, 2013

  Actual Average Record
Temperature  
Mean Temperature 48 °F -  
Max Temperature 59 °F 46 °F 64 °F (1998)
Min Temperature 35 °F 27 °F -5 °F (1985)
Degree Days  
Heating Degree Days 17    
Moisture  
Dew Point 15 °F    
Average Humidity 32    
Maximum Humidity 56    
Minimum Humidity 16    
Precipitation  
Precipitation 0.00 in - - ()
Sea Level Pressure  
Sea Level Pressure 30.16 in    
Wind  
Wind Speed 5 mph (WNW)    
Max Wind Speed 23 mph    
Max Gust Speed 28 mph    
Visibility 10 miles    
Events      
Averages and records for this station are not official NWS values.
T = Trace of Precipitation, MM = Missing Value Source: NWS Daily Summary

Daily Weather History Graph

Daily Weather History Graph

Search for Another Location

Airport:

Trip Planner

Search our weather history database for the weather conditions in past years. The results will help you decide how hot, cold, wet, or windy it might be!

Date:

Astronomy

Nov. 30, 2013 Rise Set
Actual Time 7:02 AM MST 4:36 PM MST
Civil Twilight 6:32 AM MST 5:06 PM MST
Nautical Twilight 5:58 AM MST 5:39 PM MST
Astronomical Twilight 5:26 AM MST 6:12 PM MST
Moon 4:16 AM MST (11/30) 3:02 PM MST (11/30)
Length of Visible Light 10h 33m
Length of Day
9h 34m
Waning Crescent, 7% of the Moon is Illuminated
Nov 30
Waning Crescent
Dec 2
New
Dec 9
First Quarter
Dec 17
Full
Dec 25
Last Quarter

Hourly Weather History & Observations

Time (MST) Temp. Windchill Dew Point Humidity Pressure Visibility Wind Dir Wind Speed Gust Speed Precip Events Conditions
12:15 AM 46.4 °F - 15.8 °F 29% 30.16 in 10.0 mi Calm Calm - N/A   Clear
12:35 AM 44.6 °F 42.2 °F 17.6 °F 34% 30.16 in 10.0 mi SW 4.6 mph - N/A   Clear
12:55 AM 42.8 °F 41.1 °F 17.6 °F 36% 30.16 in 10.0 mi West 3.5 mph - N/A   Clear
1:15 AM 42.8 °F - 15.8 °F 34% 30.16 in 10.0 mi Calm Calm - N/A   Clear
1:35 AM 42.8 °F 41.1 °F 15.8 °F 34% 30.16 in 10.0 mi SW 3.5 mph - N/A   Clear
1:55 AM 42.8 °F - 15.8 °F 34% 30.16 in 10.0 mi Calm Calm - N/A   Clear
2:15 AM 44.6 °F - 14.0 °F 29% 30.17 in 10.0 mi Calm Calm - N/A   Clear
2:35 AM 42.8 °F 38.6 °F 17.6 °F 36% 30.16 in 10.0 mi WSW 6.9 mph - N/A   Clear
2:55 AM 42.8 °F 39.3 °F 15.8 °F 34% 30.16 in 10.0 mi WSW 5.8 mph - N/A   Clear
3:15 AM 41.0 °F 39.0 °F 15.8 °F 36% 30.16 in 10.0 mi West 3.5 mph - N/A   Clear
3:35 AM 42.8 °F 36.2 °F 14.0 °F 31% 30.15 in 10.0 mi NW 12.7 mph - N/A   Clear
3:55 AM 44.6 °F 36.9 °F 14.0 °F 29% 30.15 in 10.0 mi WNW 18.4 mph 25.3 mph N/A   Clear
4:15 AM 42.8 °F 37.0 °F 14.0 °F 31% 30.16 in 10.0 mi WNW 10.4 mph - N/A   Clear
4:35 AM 44.6 °F 39.2 °F 14.0 °F 29% 30.16 in 10.0 mi NW 10.4 mph - N/A   Clear
4:55 AM 42.8 °F 37.5 °F 14.0 °F 31% 30.16 in 10.0 mi NW 9.2 mph - N/A   Clear
5:47 AM 41.0 °F - 12.2 °F 31% 30.15 in 30.0 mi Calm Calm - N/A   Partly Cloudy
6:47 AM 41.0 °F 36.4 °F 12.2 °F 31% 30.16 in 50.0 mi West 6.9 mph - N/A   Partly Cloudy
7:47 AM 44.6 °F - 12.2 °F 27% 30.18 in 70.0 mi Calm Calm - N/A   Partly Cloudy
9:55 AM 50.0 °F - 15.8 °F 26% 30.18 in 50.0 mi Variable 4.6 mph - N/A   Clear
10:55 AM 55.4 °F - 14.0 °F 20% 30.18 in 50.0 mi Variable 4.6 mph - N/A   Clear
11:47 AM 57.2 °F - 12.2 °F 17% 30.16 in 50.0 mi Variable 4.6 mph - N/A   Partly Cloudy
12:47 PM 57.2 °F - 12.2 °F 17% 30.15 in 50.0 mi Calm Calm - N/A   Partly Cloudy
1:48 PM 59.0 °F - 12.2 °F 16% 30.12 in 50.0 mi West 12.7 mph - N/A   Partly Cloudy
2:47 PM 57.2 °F - 10.4 °F 16% 30.11 in 50.0 mi West 19.6 mph - N/A   Partly Cloudy
3:56 PM 55.4 °F - 10.4 °F 17% 30.13 in 50.0 mi West 23.0 mph 27.6 mph N/A   Partly Cloudy
4:47 PM 50.0 °F - 10.4 °F 20% 30.14 in 50.0 mi WNW 19.6 mph - N/A   Partly Cloudy
5:50 PM 48.2 °F - 12.2 °F 24% 30.15 in 30.0 mi WNW 17.3 mph - N/A   Partly Cloudy
6:52 PM 48.2 °F - 14.0 °F 25% 30.15 in 30.0 mi West 15.0 mph - N/A   Clear
7:50 PM 42.8 °F 40.1 °F 15.8 °F 34% 30.16 in 30.0 mi West 4.6 mph - N/A   Clear
8:50 PM 41.0 °F - 15.8 °F 36% 30.15 in 30.0 mi Calm Calm - N/A   Clear
9:45 PM 41.0 °F 39.0 °F 15.8 °F 36% 30.15 in 15.0 mi NNW 3.5 mph - N/A   Clear
10:15 PM 41.0 °F - 17.6 °F 39% 30.16 in 10.0 mi Calm Calm - N/A   Clear
10:35 PM 42.8 °F 39.3 °F 19.4 °F 39% 30.16 in 10.0 mi NNE 5.8 mph - N/A   Clear
10:55 PM 39.2 °F 33.0 °F 21.2 °F 49% 30.16 in 10.0 mi NNE 9.2 mph - N/A   Clear
11:15 PM 37.4 °F 32.1 °F 21.2 °F 52% 30.16 in 10.0 mi North 6.9 mph - N/A   Clear
11:35 PM 37.4 °F 34.9 °F 21.2 °F 52% 30.16 in 10.0 mi SSW 3.5 mph - N/A   Clear
11:55 PM 35.6 °F 30.7 °F 21.2 °F 56% 30.16 in 10.0 mi West 5.8 mph - N/A   Clear